Location: �clusier
(49.9361°N, 2.7869°E)
Time: 08:10:27
(UTC+00:00)

Cosmos 1624 Rocket - Pass Details

Date: 16 June 2021
Orbit: 758 x 783 km, 74.0° (Epoch: 01 August)

Event Time Altitude Azimuth Distance (km) Brightness Sun altitude
Rises 20:30:41 0° 209° (SSW) 3,256 7.1 -4.5°
Reaches altitude 10° 20:33:05 10° 211° (SSW) 2,330 6.4 -4.7°
Maximum altitude 20:38:22 71° 296° (WNW) 826 4.5 -5.3°
Drops below altitude 10° 20:43:40 10° 20° (NNE) 2,331 6.9 -5.9°
Sets 20:46:04 0° 23° (NNE) 3,258 7.6 -6.2°
